This is the latest recevied weather packets stored in our database for station/object W4MSI. If no packets are shown the sender has not sent any weather packets the latest 10 day(s).
| Time | Temp. | Humidity | Pressure | Rain* | Wind** | Luminosity | Snow |
|---|---|---|---|---|---|---|---|
| 1778071412 | 10° C | 99% | 1011.5 hPa | 0 mm | - | 43 W/m² | - |
| 1778071110 | 9.44° C | 99% | 1011.4 hPa | 0 mm | - | 25 W/m² | - |
| 1778070808 | 9.44° C | 99% | 1011.3 hPa | 0 mm | - | 28 W/m² | - |
| 1778070505 | 9.44° C | 99% | 1011.4 hPa | 0 mm | - | 25 W/m² | - |
| 1778070202 | 9.44° C | 99% | 1011.4 hPa | 0 mm | - | 19 W/m² | - |
| 1778069900 | 9.44° C | 99% | 1011.5 hPa | 0 mm | - | 13 W/m² | - |
| 1778069597 | 9.44° C | 99% | 1011.6 hPa | 0 mm | - | 12 W/m² | - |
| 1778069294 | 9.44° C | 99% | 1011.4 hPa | 0 mm | - | 13 W/m² | - |
| 1778068992 | 9.44° C | 99% | 1010.8 hPa | 0 mm | - | 13 W/m² | - |
| 1778068689 | 9.44° C | 99% | 1010.9 hPa | 0 mm | - | 14 W/m² | - |
| 1778068387 | 10° C | 98% | 1011 hPa | 0 mm | - | 13 W/m² | - |
| 1778068085 | 9.44° C | 99% | 1011 hPa | 0 mm | - | 12 W/m² | - |
| 1778067782 | 10° C | 99% | 1010.8 hPa | 0 mm | - | 14 W/m² | - |
| 1778067481 | 10° C | 99% | 1010.7 hPa | 0 mm | - | 9 W/m² | - |
| 1778067178 | 9.44° C | 98% | 1010.7 hPa | 0 mm | - | 10 W/m² | - |
| 1778066874 | 9.44° C | 99% | 1010.7 hPa | 0 mm | - | 10 W/m² | - |
| 1778066572 | 9.44° C | 98% | 1010.6 hPa | 0 mm | - | 7 W/m² | - |
| 1778066269 | 9.44° C | 98% | 1010.9 hPa | 1.27 mm | - | 3 W/m² | - |
| 1778065967 | 9.44° C | 98% | 1010.5 hPa | 1.27 mm | - | 2 W/m² | - |
| 1778065663 | 10° C | 98% | 1010.6 hPa | 1.27 mm | - | 3 W/m² | - |
| 1778065361 | 9.44° C | 98% | 1010.6 hPa | 0 mm | - | 1 W/m² | - |
| 1778065057 | 9.44° C | 98% | 1010.3 hPa | 0 mm | - | 1 W/m² | - |
| 1778064755 | 9.44° C | 98% | 1010.1 hPa | 0 mm | - | 0 W/m² | - |
| 1778064452 | 9.44° C | 98% | 1010.2 hPa | 0 mm | - | 0 W/m² | - |
| 1778064150 | 9.44° C | 98% | 1010.5 hPa | 1.78 mm | - | 0 W/m² | - |
* Rain latest hour (hover to see other rain measurements)
** Current wind speed in m/s (hover to see current wind gust speed)